557  
ASUS41 KGYX 240110  
RWRGYX  
WEATHER ROUNDUP FOR MAINE AND NEW HAMPSHIRE  
NATIONAL WEATHER SERVICE GRAY ME  
800 PM EST THU NOV 23 2017  
 
MEZ002-005-006-010-012-015-018-020-021-024-026-027-029-240200-  
MAINE  
 
CITY SKY/WX TMP DP RH WIND PRES REMARKS
 
PORTLAND CLOUDY 30 18 60 W3 29.96S  
SANFORD N/A 29 17 61 CALM 29.96S  
BAR HARBOR CLOUDY 29 19 66 CALM 29.94F  
WISCASSET MOCLDY 28 24 85 CALM 29.97S  
ROCKLAND PTCLDY 30 21 69 NW3 29.94F  
FRYEBURG CLOUDY 30 22 72 CALM 29.94S  
LEWISTONAUBURN CLOUDY 30 21 69 CALM 29.94F  
AUGUSTA CLOUDY 31 16 54 CALM 29.93F  
WATERVILLE CLOUDY 30 19 63 CALM 29.88F  
BANGOR CLOUDY 29 18 63 CALM 29.94S  
GREENVILLE N/A 22 15 75 CALM 29.82F  
MILLINOCKET CLOUDY 26 17 68 VRB7 29.91S  
HOULTON CLOUDY 24 16 71 W7 29.85F  
PRESQUE ISLE CLOUDY 23 17 78 SW3 29.85R  
FRENCHVILLE CLOUDY 20 13 74 SW12 29.76F WCI 8  
CARIBOU CLOUDY 22 15 75 SW7 29.82R  

 
 
NHZ002-005-008-009-011-012-014-240200-  
NEW HAMPSHIRE  
 
CITY SKY/WX TMP DP RH WIND PRES REMARKS
 
PORTSMOUTH MOCLDY 32 15 50 W5 29.96S  
ROCHESTER PTCLDY 31 14 49 W5 29.95S  
NASHUA PTCLDY 29 23 78 NW5 29.98S  
MANCHESTER CLOUDY 33 17 51 NW5 29.96S  
CONCORD PTCLDY 26 17 68 CALM 29.97S  
LACONIA CLOUDY 30 17 58 W6 29.96S  
PLYMOUTH CLOUDY 28 19 67 CALM 29.96R  
BERLIN CLOUDY 25 21 85 CALM 29.90S  
WHITEFIELD CLOUDY 26 21 81 CALM 29.91F  
JAFFREY PTCLDY 28 22 78 CALM 29.94S  
KEENE CLEAR 25 18 74 CALM 29.98R  
LEBANON CLOUDY 29 21 72 S6 29.95S  
MT WASHINGTON FOG 9 9 100 W39 N/A VSB 1/8 WCI -17  

 
 
VTZ005-007-008-240200-  
VERMONT  
 
CITY SKY/WX TMP DP RH WIND PRES REMARKS
 
ST JOHNSBURY N/A 28 19 69 MISG 29.92F  
MONTPELIER CLOUDY 28 18 66 S3 29.94F  
BURLINGTON CLOUDY 32 18 56 S6 29.94F  

 
 
MAZ007-012-024-CTZ003-RIZ002-NYZ038-NYZ072-240200-  
SOUTHERN NEW ENGLAND AND NY  
 
CITY SKY/WX TMP DP RH WIND PRES REMARKS
 
BOSTON MOCLDY 38 16 40 VRB3 29.98S  
WORCESTER CLOUDY 30 16 56 W5 29.95R  
NANTUCKET CLEAR 35 29 78 NW6 29.98S  
PROVIDENCE CLEAR 34 23 64 W6 29.99S  
HARTFORD PTCLDY 31 19 61 CALM 30.01R  
ALBANY CLOUDY 32 22 66 S5 30.00S  
NEW YORK CITY PTCLDY 42 20 41 W8 30.01F  

 
 
ANZ081-ANZ082-ANZ150-NHZ014-MEZ023>029-240200-  
COASTAL MARINE OBSERVATIONS  
 
STATION/POSITION TIME TEMP WIND PRES WAVE
 
AIR SEA DIR/SP/G HT/PER  
(UTC) (F) (DEG/KT/KT) (MB) (FT/S)  
MOUNT DESERT ROC 0100 37 300/ 9/ 12 1013.5F  
MATINICUS ROCK 0000 37 300/ 14/ 16 1013.6R  
ISLE OF SHOALS 0000 36 290/ 10/ 12 1014.6F  
JEFFREYS LEDGE 0036 49 N/A 5/11  
GEORGES BANK BUO 2350 46 52 1014.1 8/10  

 
   
............KEY...........
 
 
WCI - WIND CHILL  
TC - TEMPERATURE IN CELSIUS  
VSB - VISIBILITY
IN MILES  
HX - HEAT INDEX  
FAIR- INDICATES FEW OR NO CLOUDS BELOW 12,000 FT, WITH NO  
SIGNIFICANT WEATHER AND/OR S TO VISIBILITY.  
 
 
 
CLICK HERE TO GO TO PREVIOUS BULLETINS.

The Nexlab ME Page
The Nexlab NH Page Main Text Page